Regional Weather Roundup
Issued by NWS Jackson, KY

Home | Current Version | Previous Version | Text Only | Print | Product List | Glossary Off
Versions: 1 2 3 4 5 6 7 8 9 10 11 12 13 14 15 16 17 18 19 20 21 22 23 24 25 26 27 28 29 30 31 32 33 34 35 36 37 38 39 40 41 42 43 44 45 46 47 48 49 50

000
ASUS43 KJKL 012105
RWRJKL

EAST KENTUCKY HOURLY WEATHER ROUNDUP
NATIONAL WEATHER SERVICE JACKSON KY
500 PM EDT FRI AUG 01 2014

NOTE: "FAIR" INDICATES FEW OR NO CLOUDS BELOW 12,000 FEET WITH
NO SIGNIFICANT WEATHER AND/OR OBSTRUCTIONS TO VISIBILITY.

* THESE REPORTS ARE NOT UNDER NWS QUALITY CONTROL AND MAY NOT
  REPORT WEATHER SUCH AS PRECIPITATION AND FOG.

KYZ079-080-083-085-087-088-110-112-115-119-120-012200
...EASTERN KENTUCKY...

CITY           SKY/WX    TMP DP  RH WIND       PRES   REMARKS
JACKSON        CLOUDY    81  61  50 CALM      30.07F
LONDON         MOSUNNY   84  62  47 VRB6      30.06F
SOMERSET*      CLOUDY    79  61  53 N5        30.06F
MONTICELLO*    SUNNY     86  65  49 N6        30.07F
WILLIAMSBURG*  SUNNY     82  61  47 CALM      30.06F
MIDDLESBORO*   PTSUNNY   83  64  53 CALM      30.06F
HARLAN APT*    MOCLDY    79  63  57 MISG      30.08F
BLACK MTN*       N/A    N/A N/A N/A S2          N/A
PIKEVILLE APT* PTSUNNY   77  63  61 SE5       30.09F
BIG SANDY*     PTCLDY    82  65  56 SE6       30.07F
MOREHEAD APT*  MOCLDY    81  63  54 NE5       30.09F
$$

KYZ035-036-041-042-044-050-067-078-099-012200
...CENTRAL KENTUCKY...

CITY           SKY/WX    TMP DP  RH WIND       PRES   REMARKS
MT STERLING*   MOSUNNY   82  63  51 NE5       30.08F
FLEMING/MASON* SUNNY     82  58  44 E5        30.07F
DANVILLE*      PTSUNNY   82  59  44 E7        30.07F
RICHMOND*      CLOUDY    81  61  50 CALM      30.06F
LEXINGTON      SUNNY     85  58  39 NE6       30.06F
FRANKFORT      SUNNY     85  56  37 VRB5      30.05F
$$

KYZ091>093-OHZ055-061-077-WVZ005-015-034-035-042-012200
...SOUTHERN OHIO/WEST VIRGINIA...

CITY           SKY/WX    TMP DP  RH WIND       PRES   REMARKS
COVINGTON      MOSUNNY   83  57  41 CALM      30.07F
COLUMBUS       MOSUNNY   85  60  42 N3        30.06F
DAYTON         PTSUNNY   82  59  45 NE5       30.09F
WILMINGTON     SUNNY     80  60  50 SE6       30.07F
HUNTINGTON     PTSUNNY   81  63  54 SE3       30.05F
CHARLESTON     PTSUNNY   82  62  50 SE6       30.07F
PINEVILLE*     PTSUNNY   81  63  53 MISG      30.17S
BECKLEY        PTSUNNY   73  56  54 SE13      30.17F
BLUEFIELD      PTSUNNY   69  57  65 SE8       30.20F
$$

VAZ002-007-008-TNZ017-027-036-066-071-012200
...SOUTHWEST VIRGINIA/EAST TENNESSEE...

CITY           SKY/WX    TMP DP  RH WIND       PRES   REMARKS
WISE*          MOSUNNY   73  59  60 E5        30.16F
JONESVILLE*    CLEAR     81  63  54 CALM      30.09F
ABINGDON*      CLOUDY    75  61  61 SE13      30.15S
BRISTOL        MOSUNNY   79  61  53 SE9       30.10F
KNOXVILLE      MOSUNNY   83  61  47 NE7       30.02F
OAK RIDGE      CLOUDY    84  60  44 VRB5      30.05F
CROSSVILLE     CLOUDY    78  62  57 VRB3      30.10S
NASHVILLE      PTSUNNY   86  60  41 E7        30.03F
$$

...KEY TO REMARKS...
VSB - VISIBILITY IN MILES
WCI - WIND CHILL INDEX
HX  - HEAT INDEX

$$


USA.gov is the U.S. government's official web portal to all federal, state and local government web resources and services.